Wayne, NE

9:55 AM CST on January 16, 2018 (GMT -0600)
Wayne Municipal

Weather History for KLCG - January, 2013

Change the Weather History Date:

Saturday, January 5, 2013

  Actual Average (KOFK) Record (KOFK)
Temperature  
Mean Temperature 21 °F -  
Max Temperature 34 °F 28 °F 70 °F (2012)
Min Temperature 8 °F 9 °F -32 °F (1924)
Degree Days  
Heating Degree Days 44    
Moisture  
Dew Point 15 °F    
Average Humidity 79    
Maximum Humidity 87    
Minimum Humidity 63    
Precipitation  
Precipitation 0.00 in - - ()
Sea Level Pressure  
Sea Level Pressure 30.04 in    
Wind  
Wind Speed 9 mph (WNW)    
Max Wind Speed 23 mph    
Max Gust Speed 34 mph    
Visibility 10 miles    
Events Snow    
Averages and records for this station are not official NWS values.
T = Trace of Precipitation, MM = Missing Value Source: NWS Daily Summary

Daily Weather History Graph

Daily Weather History Graph

Search for Another Location

Airport or City:

Trip Planner

Search our weather history database for the weather conditions in past years. The results will help you decide how hot, cold, wet, or windy it might be!

Date:

Astronomy

Jan. 05, 2013 Rise Set
Actual Time 7:56 AM CST 5:10 PM CST
Civil Twilight 7:25 AM CST 5:42 PM CST
Nautical Twilight 6:50 AM CST 6:17 PM CST
Astronomical Twilight 6:16 AM CST 6:51 PM CST
Moon 1:00 AM CST (1/5) 12:04 PM CST (1/5)
Length of Visible Light 10h 16m
Length of Day
9h 13m
Last Quarter, 44% of the Moon is Illuminated
Jan 5
Last Quarter
Jan 11
New
Jan 18
First Quarter
Jan 26
Full
Feb 3
Last Quarter

Hourly Weather History & Observations

Time (CST) Temp. Windchill Dew Point Humidity Pressure Visibility Wind Dir Wind Speed Gust Speed Precip Events Conditions
12:15 AM 14.5 °F 2.7 °F 10.9 °F 86% 30.04 in 10.0 mi SSW 9.2 mph - N/A   Clear
12:35 AM 15.1 °F 4.2 °F 10.6 °F 82% 30.04 in 10.0 mi SSW 8.1 mph - N/A   Clear
12:55 AM 13.1 °F 7.1 °F 9.1 °F 84% 30.03 in 10.0 mi SSW 3.5 mph - N/A   Clear
1:15 AM 13.3 °F 3.0 °F 9.3 °F 84% 30.03 in 10.0 mi South 6.9 mph - N/A   Clear
1:35 AM 12.4 °F - 8.4 °F 84% 30.03 in 10.0 mi Calm Calm - N/A   Clear
1:55 AM 10.8 °F 4.5 °F 6.6 °F 83% 30.03 in 10.0 mi SSW 3.5 mph - N/A   Clear
2:15 AM 10.0 °F 3.6 °F 6.1 °F 84% 30.03 in 10.0 mi SSW 3.5 mph - N/A   Clear
2:35 AM 10.4 °F 4.0 °F 6.8 °F 85% 30.03 in 10.0 mi South 3.5 mph - N/A   Clear
2:55 AM 11.8 °F 2.5 °F 7.7 °F 83% 30.02 in 10.0 mi South 5.8 mph - N/A   Clear
3:15 AM 10.6 °F - 6.4 °F 83% 30.02 in 10.0 mi Calm Calm - N/A   Clear
3:35 AM 12.0 °F 1.5 °F 8.2 °F 85% 30.01 in 10.0 mi South 6.9 mph - N/A   Clear
3:55 AM 12.9 °F - 8.1 °F 81% 30.00 in 10.0 mi Calm Calm - N/A   Clear
4:15 AM 12.6 °F - 8.8 °F 85% 30.00 in 10.0 mi Calm Calm - N/A   Clear
4:35 AM 12.0 °F 5.9 °F 8.2 °F 85% 29.99 in 10.0 mi South 3.5 mph - N/A   Clear
4:55 AM 13.1 °F 0.1 °F 9.1 °F 84% 29.98 in 10.0 mi South 10.4 mph - N/A   Clear
5:15 AM 15.1 °F 3.3 °F 10.2 °F 81% 29.96 in 10.0 mi South 9.2 mph - N/A   Clear
5:35 AM 15.8 °F 8.6 °F 10.9 °F 81% 29.97 in 10.0 mi WSW 4.6 mph - N/A   Clear
5:55 AM 13.6 °F 6.0 °F 8.2 °F 79% 29.98 in 10.0 mi NW 4.6 mph - N/A   Clear
6:15 AM 10.6 °F -1.3 °F 6.4 °F 83% 29.98 in 10.0 mi South 8.1 mph - N/A   Clear
6:35 AM 10.8 °F 1.2 °F 7.0 °F 85% 29.98 in 10.0 mi SSW 5.8 mph - N/A   Clear
7:15 AM 11.1 °F 1.7 °F 7.0 °F 83% 29.98 in 10.0 mi SW 5.8 mph - N/A   Clear
7:35 AM 11.8 °F 3.9 °F 7.9 °F 84% 29.98 in 10.0 mi WSW 4.6 mph - N/A   Clear
7:55 AM 10.8 °F 1.2 °F 6.8 °F 84% 29.99 in 10.0 mi SW 5.8 mph - N/A   Clear
8:15 AM 8.4 °F -0.1 °F 4.8 °F 85% 29.98 in 10.0 mi SSW 4.6 mph - N/A   Clear
8:35 AM 12.6 °F 4.8 °F 9.1 °F 86% 29.98 in 10.0 mi WSW 4.6 mph - N/A   Clear
8:55 AM 12.9 °F - 8.4 °F 82% 29.98 in 10.0 mi Calm Calm - N/A   Clear
9:15 AM 13.1 °F - 8.6 °F 82% 29.98 in 10.0 mi Calm Calm - N/A   Clear
9:55 AM 17.6 °F 12.3 °F 11.8 °F 78% 29.98 in 10.0 mi West 3.5 mph - N/A   Clear
10:15 AM 19.4 °F - 12.9 °F 76% 29.98 in 10.0 mi Calm Calm - N/A   Clear
11:15 AM 27.5 °F 18.6 °F 17.2 °F 65% 30.00 in 10.0 mi NW 9.2 mph - N/A   Clear
11:35 AM 28.4 °F 19.7 °F 17.8 °F 64% 29.98 in 10.0 mi NW 9.2 mph - N/A   Clear
11:55 AM 28.9 °F 20.4 °F 17.8 °F 63% 29.98 in 10.0 mi NW 9.2 mph - N/A   Clear
12:15 PM 29.5 °F 21.8 °F 19.6 °F 67% 29.98 in 10.0 mi WNW 8.1 mph - N/A   Clear
12:35 PM 30.6 °F 21.2 °F 19.6 °F 64% 29.98 in 10.0 mi NW 11.5 mph - N/A   Clear
12:55 PM 31.5 °F 24.2 °F 21.4 °F 66% 29.97 in 10.0 mi NW 8.1 mph - N/A   Clear
1:15 PM 33.1 °F 25.5 °F 23.2 °F 67% 29.97 in 10.0 mi NW 9.2 mph - N/A   Clear
1:35 PM 33.8 °F 24.3 °F 23.7 °F 67% 29.97 in 10.0 mi NW 13.8 mph - N/A   Clear
1:55 PM 34.2 °F 24.4 °F 24.4 °F 68% 29.97 in 10.0 mi NW 15.0 mph 19.6 mph N/A   Clear
2:15 PM 34.3 °F 25.0 °F 24.4 °F 67% 29.97 in 10.0 mi NW 13.8 mph 21.9 mph N/A   Clear
2:35 PM 34.2 °F 25.7 °F 24.3 °F 67% 29.97 in 10.0 mi NW 11.5 mph - N/A   Clear
2:55 PM 34.2 °F 23.6 °F 24.4 °F 68% 29.97 in 10.0 mi NW 17.3 mph 25.3 mph N/A   Clear
3:15 PM 34.2 °F 24.0 °F 24.8 °F 69% 29.98 in 10.0 mi NW 16.1 mph 21.9 mph N/A   Clear
3:35 PM 33.6 °F 21.6 °F 24.4 °F 69% 29.99 in 10.0 mi NW 21.9 mph 27.6 mph N/A   Clear
3:55 PM 32.9 °F 23.2 °F 24.4 °F 71% 30.00 in 10.0 mi NW 13.8 mph - N/A   Clear
4:15 PM 32.2 °F 20.0 °F 24.3 °F 73% 30.01 in 10.0 mi NW 20.7 mph 27.6 mph N/A   Clear
4:55 PM 27.5 °F 13.5 °F 20.3 °F 74% 30.04 in 10.0 mi NNW 21.9 mph 29.9 mph N/A   Scattered Clouds
5:15 PM 25.7 °F 14.0 °F 19.6 °F 78% 30.05 in 10.0 mi NW 13.8 mph - N/A   Scattered Clouds
5:35 PM 26.1 °F 15.0 °F 20.3 °F 79% 30.06 in 10.0 mi NW 12.7 mph - N/A   Mostly Cloudy
5:55 PM 26.6 °F 12.4 °F 21.0 °F 79% 30.06 in 10.0 mi NW 21.9 mph 26.5 mph N/A   Overcast
6:15 PM 25.2 °F 10.8 °F 19.0 °F 78% 30.08 in 10.0 mi NW 20.7 mph 29.9 mph N/A   Mostly Cloudy
6:35 PM 24.3 °F 10.4 °F 18.1 °F 77% 30.10 in 10.0 mi NW 18.4 mph 25.3 mph N/A   Overcast
6:55 PM 24.1 °F 9.4 °F 18.3 °F 79% 30.11 in 10.0 mi NW 20.7 mph 27.6 mph N/A   Overcast
7:15 PM 23.5 °F 8.7 °F 17.6 °F 78% 30.12 in 10.0 mi NW 20.7 mph 32.2 mph N/A   Overcast
7:55 PM 18.5 °F 1.6 °F 13.1 °F 79% 30.15 in 10.0 mi NNW 21.9 mph 34.5 mph N/A   Mostly Cloudy
8:15 PM 18.3 °F 2.6 °F 14.0 °F 83% 30.15 in 5.0 mi NW 18.4 mph 23.0 mph N/A Snow Light Snow
8:35 PM 19.2 °F 3.8 °F 15.1 °F 84% 30.15 in 7.0 mi NW 18.4 mph 24.2 mph N/A   Overcast
8:55 PM 19.8 °F 3.7 °F 15.8 °F 85% 30.15 in 5.0 mi NW 20.7 mph 27.6 mph N/A   Overcast
9:15 PM 19.9 °F 3.2 °F 16.5 °F 87% 30.15 in 5.0 mi NNW 23.0 mph 26.5 mph N/A   Overcast
9:35 PM 20.3 °F 5.2 °F 16.7 °F 86% 30.16 in 10.0 mi NNW 18.4 mph 26.5 mph N/A   Overcast
9:55 PM 21.0 °F 5.0 °F 17.2 °F 85% 30.17 in 10.0 mi NNW 21.9 mph 28.8 mph N/A   Overcast
10:15 PM 21.2 °F 7.3 °F 17.4 °F 85% 30.18 in 10.0 mi NNW 16.1 mph - N/A   Overcast
10:35 PM 21.6 °F 7.8 °F 17.6 °F 85% 30.18 in 10.0 mi NNW 16.1 mph - N/A   Overcast
10:55 PM 21.7 °F 6.7 °F 17.6 °F 84% 30.18 in 10.0 mi NNW 19.6 mph 25.3 mph N/A   Overcast
11:15 PM 21.4 °F 8.5 °F 17.8 °F 86% 30.20 in 7.0 mi NNW 13.8 mph 18.4 mph N/A   Overcast
11:35 PM 20.8 °F 8.4 °F 17.4 °F 87% 30.20 in 7.0 mi NNW 12.7 mph - N/A   Overcast
11:55 PM 20.3 °F 8.3 °F 16.5 °F 85% 30.20 in 10.0 mi NW 11.5 mph - N/A   Overcast